Location: Archemont
(49.1579°N, 1.7598°E)
Time: 11:06:37
(UTC+00:00)

BlueWalker 3 - Pass Details

Date: 01 March 2024
Orbit: 485 x 495 km, 53.2° (Epoch: 25 April)

Event Time Altitude Azimuth Distance (km) Brightness Sun altitude
Rises 19:31:22 0° 294° (WNW) 2,562 7.0 -19.4°
Reaches altitude 10° 19:33:34 10° 291° (WNW) 1,676 5.8 -19.8°
Maximum altitude 19:37:17 61° 212° (SSW) 557 2.1 -20.4°
Enters shadow 19:37:48 54° 172° (S) 598 2.1 -20.5°
